Terminal Aerodrome Forecast
Issued by NWS Raleigh/Durham, NC

Home | Current Version | Previous Version | Text Only | Print | Product List | Glossary On
Versions: 1 2 3 4 5 6 7 8 9 10 11 12 13 14 15 16 17 18 19 20 21 22 23 24 25 26 27 28 29 30 31 32 33 34 35 36 37 38 39 40 41 42 43 44 45 46 47 48 49 50
000
FTUS42 KRAH 181739
TAFGSO
TAF
KGSO 181739Z 1818/1918 24011KT P6SM BKN045 BKN100 BKN250
      TEMPO 1818/1821 VRB12G25KT 4SM TSRA BR BKN035CB
     FM182300 28005KT P6SM BKN100 BKN250
     FM191600 32005KT P6SM SCT040 BKN150=

USA.gov is the U.S. government's official web portal to all federal, state and local government web resources and services.